Time,TemperatureF,DewpointF,PressureIn,WindDirection,WindDirectionDegrees,WindSpeedMPH,WindSpeedGustMPH,Humidity,HourlyPrecipIn,Conditions,Clouds,dailyrainin,SoftwareType,DateUTC
2013-05-03 00:04:00,43.6,37.0,25.00,NE,48,0.0,-999.0,76,-99.99,,,0.00,weatherlink.com 1.10,2013-05-03 04:04:00,
2013-05-03 00:19:00,43.1,37.0,25.00,NE,48,0.0,-999.0,78,-99.99,,,0.00,weatherlink.com 1.10,2013-05-03 04:19:00,
2013-05-03 00:34:00,42.7,37.0,25.00,NE,48,0.0,-999.0,79,-99.99,,,0.00,weatherlink.com 1.10,2013-05-03 04:34:00,
2013-05-03 00:49:00,42.1,36.0,25.00,NE,48,0.0,-999.0,80,-99.99,,,0.00,weatherlink.com 1.10,2013-05-03 04:49:00,
2013-05-03 01:04:00,42.0,37.0,25.00,NE,40,0.0,-999.0,82,-99.99,,,0.00,weatherlink.com 1.10,2013-05-03 05:04:00,
2013-05-03 01:19:00,41.9,37.0,25.00,NE,40,0.0,-999.0,82,-99.99,,,0.00,weatherlink.com 1.10,2013-05-03 05:19:00,
2013-05-03 01:34:00,41.7,37.0,25.00,NE,37,0.0,-999.0,82,-99.99,,,0.00,weatherlink.com 1.10,2013-05-03 05:34:00,
2013-05-03 01:49:00,42.1,37.0,25.00,NNW,346,0.0,-999.0,82,-99.99,,,0.00,weatherlink.com 1.10,2013-05-03 05:49:00,
2013-05-03 02:04:00,42.1,37.0,25.00,NNW,343,0.0,-999.0,82,-99.99,,,0.00,weatherlink.com 1.10,2013-05-03 06:04:00,
2013-05-03 02:19:00,42.0,37.0,25.00,NNW,344,0.0,-999.0,82,-99.99,,,0.00,weatherlink.com 1.10,2013-05-03 06:19:00,
2013-05-03 02:34:00,41.9,37.0,25.00,NNW,344,0.0,-999.0,82,-99.99,,,0.00,weatherlink.com 1.10,2013-05-03 06:34:00,
2013-05-03 02:49:00,41.6,37.0,25.00,NNW,329,0.0,-999.0,83,-99.99,,,0.00,weatherlink.com 1.10,2013-05-03 06:49:00,
2013-05-03 03:04:00,41.3,37.0,25.00,NNW,329,1.0,-999.0,83,-99.99,,,0.00,weatherlink.com 1.10,2013-05-03 07:04:00,
2013-05-03 03:19:00,41.3,37.0,25.00,NW,324,0.0,-999.0,83,-99.99,,,0.00,weatherlink.com 1.10,2013-05-03 07:19:00,
2013-05-03 03:34:00,41.1,36.0,25.00,NW,325,0.0,-999.0,83,-99.99,,,0.00,weatherlink.com 1.10,2013-05-03 07:34:00,
2013-05-03 03:49:00,40.9,36.0,0.00,NW,313,0.0,-999.0,83,-99.99,,,0.00,weatherlink.com 1.10,2013-05-03 07:49:00,
2013-05-03 04:04:00,40.8,36.0,0.00,NNW,338,0.0,-999.0,83,-99.99,,,0.00,weatherlink.com 1.10,2013-05-03 08:04:00,
2013-05-03 04:19:00,40.4,36.0,0.00,NNW,338,0.0,-999.0,84,-99.99,,,0.00,weatherlink.com 1.10,2013-05-03 08:19:00,
2013-05-03 04:34:00,40.1,36.0,22.68,NNW,339,0.0,-999.0,84,-99.99,,,0.00,weatherlink.com 1.10,2013-05-03 08:34:00,
2013-05-03 04:49:00,39.8,35.0,24.80,NNW,338,0.0,-999.0,84,-99.99,,,0.00,weatherlink.com 1.10,2013-05-03 08:49:00,
2013-05-03 05:04:00,39.6,36.0,24.80,NNW,344,0.0,-999.0,85,-99.99,,,0.00,weatherlink.com 1.10,2013-05-03 09:04:00,
2013-05-03 05:19:00,39.7,36.0,24.80,NNW,344,0.0,-999.0,86,-99.99,,,0.00,weatherlink.com 1.10,2013-05-03 09:19:00,
2013-05-03 05:34:00,40.2,36.0,24.80,NNW,333,0.0,-999.0,86,-99.99,,,0.00,weatherlink.com 1.10,2013-05-03 09:34:00,
2013-05-03 05:49:00,40.0,36.0,24.80,NNW,333,0.0,-999.0,86,-99.99,,,0.00,weatherlink.com 1.10,2013-05-03 09:49:00,
2013-05-03 06:04:00,39.7,36.0,24.80,NNW,345,0.0,-999.0,86,-99.99,,,0.00,weatherlink.com 1.10,2013-05-03 10:04:00,
2013-05-03 06:19:00,39.5,36.0,24.80,NNW,348,0.0,-999.0,87,-99.99,,,0.00,weatherlink.com 1.10,2013-05-03 10:19:00,
2013-05-03 06:34:00,40.4,37.0,24.80,North,360,2.0,-999.0,88,-99.99,,,0.00,weatherlink.com 1.10,2013-05-03 10:34:00,
2013-05-03 06:49:00,41.4,38.0,24.80,NW,322,0.0,-999.0,87,-99.99,,,0.00,weatherlink.com 1.10,2013-05-03 10:49:00,
2013-05-03 07:04:00,42.5,39.0,24.80,NNE,16,2.0,-999.0,86,-99.99,,,0.00,weatherlink.com 1.10,2013-05-03 11:04:00,
2013-05-03 07:19:00,44.1,40.0,24.80,NE,40,2.0,-999.0,84,-99.99,,,0.00,weatherlink.com 1.10,2013-05-03 11:19:00,
2013-05-03 07:34:00,45.8,40.0,24.80,ENE,61,0.0,-999.0,81,-99.99,,,0.00,weatherlink.com 1.10,2013-05-03 11:34:00,
2013-05-03 07:49:00,46.5,40.0,24.80,West,259,0.0,-999.0,79,-99.99,,,0.00,weatherlink.com 1.10,2013-05-03 11:49:00,
2013-05-03 08:04:00,47.1,41.0,24.80,NW,304,5.0,-999.0,78,-99.99,,,0.00,weatherlink.com 1.10,2013-05-03 12:04:00,
2013-05-03 08:19:00,48.0,41.0,24.80,NE,55,10.0,-999.0,76,-99.99,,,0.00,weatherlink.com 1.10,2013-05-03 12:19:00,
2013-05-03 08:34:00,49.2,41.0,24.80,ENE,58,1.0,-999.0,73,-99.99,,,0.00,weatherlink.com 1.10,2013-05-03 12:34:00,
2013-05-03 08:49:00,50.6,41.0,24.80,ENE,67,3.0,-999.0,71,-99.99,,,0.00,weatherlink.com 1.10,2013-05-03 12:49:00,
2013-05-03 09:04:00,51.5,41.0,23.75,ESE,113,1.0,-999.0,67,-99.99,,,0.00,weatherlink.com 1.10,2013-05-03 13:04:00,
2013-05-03 09:19:00,51.5,40.0,23.75,NNW,331,2.0,-999.0,66,-99.99,,,0.00,weatherlink.com 1.10,2013-05-03 13:19:00,
2013-05-03 09:34:00,53.2,41.0,24.80,SSE,148,3.0,-999.0,63,-99.99,,,0.00,weatherlink.com 1.10,2013-05-03 13:34:00,
2013-05-03 09:49:00,53.5,40.0,24.80,North,355,7.0,-999.0,61,-99.99,,,0.00,weatherlink.com 1.10,2013-05-03 13:49:00,
2013-05-03 10:04:00,53.9,40.0,24.80,NE,46,3.0,-999.0,59,-99.99,,,0.00,weatherlink.com 1.10,2013-05-03 14:04:00,
2013-05-03 10:19:00,54.9,41.0,23.75,South,172,5.0,-999.0,59,-99.99,,,0.00,weatherlink.com 1.10,2013-05-03 14:19:00,
2013-05-03 10:34:00,55.5,41.0,23.75,ENE,60,1.0,-999.0,59,-99.99,,,0.00,weatherlink.com 1.10,2013-05-03 14:34:00,
2013-05-03 10:49:00,56.8,41.0,23.75,ENE,59,5.0,-999.0,57,-99.99,,,0.00,weatherlink.com 1.10,2013-05-03 14:49:00,
2013-05-03 11:04:00,56.5,41.0,23.75,NNW,348,3.0,-999.0,56,-99.99,,,0.00,weatherlink.com 1.10,2013-05-03 15:04:00,
2013-05-03 11:19:00,57.1,41.0,23.75,NE,50,6.0,-999.0,55,-99.99,,,0.00,weatherlink.com 1.10,2013-05-03 15:19:00,
2013-05-03 11:34:00,58.0,42.0,23.75,SE,134,0.0,-999.0,55,-99.99,,,0.00,weatherlink.com 1.10,2013-05-03 15:34:00,
2013-05-03 11:49:00,57.5,40.0,23.75,NE,50,7.0,-999.0,53,-99.99,,,0.00,weatherlink.com 1.10,2013-05-03 15:49:00,
2013-05-03 12:04:00,57.1,40.0,23.75,East,85,5.0,-999.0,54,-99.99,,,0.00,weatherlink.com 1.10,2013-05-03 16:04:00,
2013-05-03 12:19:00,58.5,43.0,23.75,NE,51,7.0,-999.0,56,-99.99,,,0.00,weatherlink.com 1.10,2013-05-03 16:19:00,
2013-05-03 12:34:00,58.4,42.0,0.00,SSE,155,0.0,-999.0,55,-99.99,,,0.00,weatherlink.com 1.10,2013-05-03 16:34:00,
2013-05-03 12:49:00,59.0,42.0,25.00,SE,138,0.0,-999.0,54,-99.99,,,0.00,weatherlink.com 1.10,2013-05-03 16:49:00,
2013-05-03 13:04:00,58.5,42.0,25.00,NE,52,5.0,-999.0,55,-99.99,,,0.00,weatherlink.com 1.10,2013-05-03 17:04:00,
2013-05-03 13:19:00,59.1,42.0,25.00,NNE,26,5.0,-999.0,54,-99.99,,,0.00,weatherlink.com 1.10,2013-05-03 17:19:00,
2013-05-03 13:34:00,59.4,43.0,25.00,ENE,61,7.0,-999.0,54,-99.99,,,0.00,weatherlink.com 1.10,2013-05-03 17:34:00,
2013-05-03 13:49:00,59.7,43.0,25.00,South,178,1.0,-999.0,54,-99.99,,,0.00,weatherlink.com 1.10,2013-05-03 17:49:00,
2013-05-03 14:04:00,60.1,44.0,21.77,ESE,105,3.0,-999.0,55,-99.99,,,0.00,weatherlink.com 1.10,2013-05-03 18:04:00,
2013-05-03 14:19:00,61.3,45.0,25.00,ENE,63,0.0,-999.0,56,-99.99,,,0.00,weatherlink.com 1.10,2013-05-03 18:19:00,
2013-05-03 14:34:00,60.4,44.0,25.00,ESE,115,0.0,-999.0,55,-99.99,,,0.00,weatherlink.com 1.10,2013-05-03 18:34:00,
2013-05-03 14:49:00,61.1,45.0,25.00,North,351,3.0,-999.0,55,-99.99,,,0.00,weatherlink.com 1.10,2013-05-03 18:49:00,
2013-05-03 15:04:00,62.1,45.0,25.00,East,80,0.0,-999.0,53,-99.99,,,0.00,weatherlink.com 1.10,2013-05-03 19:04:00,
2013-05-03 15:19:00,61.4,44.0,25.00,SE,146,4.0,-999.0,54,-99.99,,,0.00,weatherlink.com 1.10,2013-05-03 19:19:00,
2013-05-03 15:34:00,59.9,43.0,25.00,ENE,70,5.0,-999.0,54,-99.99,,,0.00,weatherlink.com 1.10,2013-05-03 19:34:00,
2013-05-03 15:49:00,60.8,44.0,25.00,East,100,4.0,-999.0,55,-99.99,,,0.00,weatherlink.com 1.10,2013-05-03 19:49:00,
2013-05-03 16:04:00,61.7,46.0,25.00,ENE,71,2.0,-999.0,56,-99.99,,,0.00,weatherlink.com 1.10,2013-05-03 20:04:00,
2013-05-03 16:19:00,60.3,44.0,25.00,North,360,2.0,-999.0,56,-99.99,,,0.00,weatherlink.com 1.10,2013-05-03 20:19:00,
2013-05-03 16:34:00,60.3,45.0,25.00,SSE,161,4.0,-999.0,57,-99.99,,,0.00,weatherlink.com 1.10,2013-05-03 20:34:00,
2013-05-03 16:49:00,59.3,44.0,25.00,SSE,162,0.0,-999.0,57,-99.99,,,0.00,weatherlink.com 1.10,2013-05-03 20:49:00,
2013-05-03 17:04:00,59.0,44.0,25.00,SSE,168,0.0,-999.0,58,-99.99,,,0.00,weatherlink.com 1.10,2013-05-03 21:04:00,
2013-05-03 17:19:00,59.6,44.0,25.00,SSW,195,0.0,-999.0,57,-99.99,,,0.00,weatherlink.com 1.10,2013-05-03 21:19:00,
2013-05-03 17:34:00,59.4,44.0,25.00,SSE,151,0.0,-999.0,57,-99.99,,,0.00,weatherlink.com 1.10,2013-05-03 21:34:00,
2013-05-03 17:49:00,59.0,44.0,25.00,ENE,70,2.0,-999.0,58,-99.99,,,0.00,weatherlink.com 1.10,2013-05-03 21:49:00,
2013-05-03 18:04:00,59.0,44.0,25.00,SSE,153,0.0,-999.0,58,-99.99,,,0.00,weatherlink.com 1.10,2013-05-03 22:04:00,
2013-05-03 18:19:00,57.5,44.0,25.00,ESE,103,0.0,-999.0,61,-99.99,,,0.00,weatherlink.com 1.10,2013-05-03 22:19:00,
2013-05-03 18:34:00,56.6,44.0,25.00,SE,146,0.0,-999.0,62,-99.99,,,0.00,weatherlink.com 1.10,2013-05-03 22:34:00,
2013-05-03 18:49:00,56.0,44.0,25.00,NE,49,0.0,-999.0,64,-99.99,,,0.00,weatherlink.com 1.10,2013-05-03 22:49:00,
2013-05-03 19:04:00,55.4,43.0,25.00,ESE,117,0.0,-999.0,64,-99.99,,,0.00,weatherlink.com 1.10,2013-05-03 23:04:00,
2013-05-03 19:19:00,54.8,43.0,25.00,East,83,0.0,-999.0,65,-99.99,,,0.00,weatherlink.com 1.10,2013-05-03 23:19:00,
2013-05-03 19:34:00,54.2,43.0,25.00,ESE,117,0.0,-999.0,66,-99.99,,,0.00,weatherlink.com 1.10,2013-05-03 23:34:00,
2013-05-03 19:49:00,53.1,42.0,25.00,ENE,63,0.0,-999.0,66,-99.99,,,0.00,weatherlink.com 1.10,2013-05-03 23:49:00,
2013-05-03 20:04:00,51.7,41.0,25.00,ENE,63,0.0,-999.0,68,-99.99,,,0.00,weatherlink.com 1.10,2013-05-04 00:04:00,
2013-05-03 20:19:00,50.4,41.0,25.00,ENE,63,0.0,-999.0,70,-99.99,,,0.00,weatherlink.com 1.10,2013-05-04 00:19:00,
2013-05-03 20:34:00,49.3,41.0,25.00,ENE,63,0.0,-999.0,72,-99.99,,,0.00,weatherlink.com 1.10,2013-05-04 00:34:00,
2013-05-03 20:49:00,48.3,40.0,25.00,ENE,63,0.0,-999.0,74,-99.99,,,0.00,weatherlink.com 1.10,2013-05-04 00:49:00,
2013-05-03 21:04:00,47.4,40.0,25.00,ENE,63,0.0,-999.0,76,-99.99,,,0.00,weatherlink.com 1.10,2013-05-04 01:04:00,
2013-05-03 21:19:00,46.6,40.0,25.00,ENE,63,0.0,-999.0,78,-99.99,,,0.00,weatherlink.com 1.10,2013-05-04 01:19:00,
2013-05-03 21:34:00,45.9,40.0,25.00,ENE,63,0.0,-999.0,79,-99.99,,,0.00,weatherlink.com 1.10,2013-05-04 01:34:00,
2013-05-03 21:49:00,45.3,40.0,25.00,ENE,63,0.0,-999.0,81,-99.99,,,0.00,weatherlink.com 1.10,2013-05-04 01:49:00,
2013-05-03 22:04:00,44.9,39.0,25.00,ENE,63,0.0,-999.0,81,-99.99,,,0.00,weatherlink.com 1.10,2013-05-04 02:04:00,
2013-05-03 22:19:00,44.1,39.0,25.00,ENE,63,0.0,-999.0,83,-99.99,,,0.00,weatherlink.com 1.10,2013-05-04 02:19:00,
2013-05-03 22:34:00,43.4,39.0,25.00,ENE,63,0.0,-999.0,83,-99.99,,,0.00,weatherlink.com 1.10,2013-05-04 02:34:00,
2013-05-03 22:49:00,42.9,38.0,25.00,ENE,63,0.0,-999.0,84,-99.99,,,0.00,weatherlink.com 1.10,2013-05-04 02:49:00,
2013-05-03 23:04:00,42.4,38.0,25.00,ENE,63,0.0,-999.0,85,-99.99,,,0.00,weatherlink.com 1.10,2013-05-04 03:04:00,
2013-05-03 23:19:00,41.9,38.0,25.00,ENE,63,0.0,-999.0,86,-99.99,,,0.00,weatherlink.com 1.10,2013-05-04 03:19:00,
2013-05-03 23:34:00,41.6,38.0,25.00,ENE,63,0.0,-999.0,87,-99.99,,,0.00,weatherlink.com 1.10,2013-05-04 03:34:00,
2013-05-03 23:49:00,41.1,38.0,25.00,ENE,63,0.0,-999.0,87,-99.99,,,0.00,weatherlink.com 1.10,2013-05-04 03:49:00,